Theta_e
308 308 307 306 309 308 307 308 306 307 307 308 305 304 304 305 304 304 304 304 305 306 307 307 309 309 313 315 314 312 317 314 306 310 310 310 310 310 313 312 311 311 312 311 310 309 308
306 307 307 307 307 307 303 304 306 307 307 307 305 304 303 302 302 301 303 304 306 307 308 308 308 309 310 315 312 313 318 314 309 310 310 310 310 311 311 311 311 311 311 310 308 308 307
304 307 306 306 307 308 306 303 305 307 306 306 305 304 304 304 303 301 304 304 305 306 307 308 306 309 311 313 311 315 316 310 310 310 311 310 310 310 310 310 309 308 309 309 309 308 309
305 306 305 306 307 305 305 305 303 305 307 306 305 305 303 302 302 302 304 303 303 304 306 307 307 309 312 311 311 313 309 309 309 309 309 308 308 309 310 308 308 309 308 311 308 309 309
307 306 304 306 304 304 305 304 304 304 305 305 305 304 302 303 304 302 302 302 302 305 307 305 309 309 310 312 312 309 309 308 307 307 306 306 308 307 307 310 312 309 317 313 311 309 310
307 305 305 304 304 304 302 300 300 301 302 302 302 302 303 303 303 303 303 301 301 306 307 306 308 309 309 310 309 309 307 308 307 305 304 305 308 308 308 311 317 314 312 311 310 312 310
306 301 304 305 303 304 303 302 301 301 300 301 301 300 300 301 301 305 306 304 305 305 304 306 305 307 307 307 308 307 308 307 306 306 309 308 311 312 309 308 309 309 310 312 312 312 311
306 305 301 304 305 304 304 304 302 302 302 302 302 302 303 302 301 306 305 305 305 304 303 304 306 306 307 307 307 307 306 307 307 310 307 310 312 308 307 308 309 310 312 314 313 312 312
304 306 304 301 301 302 303 304 305 302 304 304 303 303 303 303 302 305 305 304 304 304 303 302 303 304 306 308 307 307 307 307 309 309 309 312 308 307 309 309 311 311 312 313 313 314 314
304 304 306 304 304 302 304 305 305 305 303 303 304 303 303 301 303 304 304 304 305 306 308 303 304 304 306 307 308 308 308 308 308 309 310 309 307 308 309 311 311 314 311 312 314 313 313
307 303 303 303 302 302 303 305 306 306 303 304 304 303 303 303 303 304 304 305 306 305 310 305 306 305 306 308 306 307 308 310 308 309 311 310 308 309 311 312 311 314 312 313 314 313 313
305 303 303 302 303 303 304 304 306 306 304 304 304 304 304 305 304 304 305 305 305 310 311 307 307 308 308 308 308 308 309 309 309 311 310 310 309 310 312 311 311 311 313 314 313 313 315
305 302 302 303 303 303 304 305 306 306 304 305 304 305 305 306 305 305 305 304 310 311 306 310 311 309 308 308 309 309 310 311 313 312 311 312 312 311 311 313 312 312 313 317 317 317 313
302 302 302 303 303 303 304 306 307 307 306 306 305 305 305 306 305 306 303 308 311 310 309 309 309 309 310 310 310 310 311 311 311 313 313 314 312 313 312 314 315 314 314 317 315 321 319
304 302 303 303 303 304 304 306 307 307 307 307 307 307 305 304 304 304 307 311 311 310 309 309 310 311 311 310 311 312 312 313 312 312 314 315 314 313 313 313 314 314 317 315 314 315 313
305 303 303 303 303 304 305 306 306 308 308 309 309 309 309 309 308 309 311 310 310 309 309 310 311 311 312 312 313 313 313 313 313 312 313 314 316 314 314 314 314 315 314 317 316 319 320
304 304 303 303 303 304 305 306 306 308 309 310 311 312 310 312 311 311 313 311 310 310 311 311 311 312 312 313 313 313 313 313 313 313 313 314 316 315 315 316 316 315 315 314 314 316 318
299 304 304 303 303 304 304 306 307 308 310 311 312 313 310 313 315 313 313 312 310 311 311 312 313 313 313 314 314 315 315 314 314 314 314 313 314 314 316 315 313 314 315 313 312 318 314
299 301 304 304 303 304 304 305 307 307 308 309 312 313 312 314 317 314 312 311 311 312 312 313 314 313 313 314 314 314 313 312 313 313 313 312 314 312 314 312 312 312 313 313 311 311 311
304 299 303 304 304 304 304 305 305 307 308 308 313 311 314 312 311 313 314 313 313 311 311 311 312 313 313 313 313 313 313 313 312 313 310 311 313 312 312 313 312 313 312 312 310 310 313
306 301 299 304 304 304 304 305 305 307 308 310 312 311 310 317 312 312 313 313 313 313 311 311 312 312 312 312 312 312 312 311 312 312 311 311 312 311 311 311 310 310 310 311 310 310 311
304 306 300 299 304 304 304 304 305 306 307 308 312 311 309 310 309 311 311 312 313 312 311 311 311 310 311 312 311 312 311 310 311 310 310 310 310 311 305 309 310 309 309 310 310 311 310
303 306 305 300 299 304 304 304 304 305 306 306 307 308 309 308 311 311 310 311 311 311 310 310 310 310 311 310 309 309 309 310 310 309 309 309 309 308 309 311 309 307 308 308 309 309 310
304 304 306 305 299 300 304 304 304 304 304 305 305 307 310 310 310 310 310 309 310 309 310 310 309 310 309 307 308 308 308 308 309 309 309 309 309 308 307 308 309 308 308 309 308 309 308
311 306 305 305 304 299 301 305 304 304 303 304 304 306 308 310 308 309 309 309 309 308 308 309 309 309 307 307 308 308 309 309 309 308 308 308 308 307 307 308 308 307 306 307 308 307 307
311 311 310 308 306 301 298 303 305 304 303 303 304 304 306 308 308 307 308 309 308 308 308 308 307 306 307 308 308 309 307 307 308 306 305 307 307 308 308 309 308 308 305 307 308 304 307
312 311 311 310 307 305 299 299 304 305 304 303 303 304 305 309 308 306 307 308 308 308 307 308 307 308 307 308 308 306 307 307 306 307 305 306 307 308 308 308 308 307 305 307 307 306 307
311 311 311 310 310 306 305 298 299 304 304 304 303 303 304 307 307 307 306 305 306 306 306 307 308 307 308 308 306 307 306 305 305 306 306 306 306 306 306 308 307 306 306 305 305 306 308
309 310 311 310 310 309 305 303 298 299 303 303 304 304 303 303 304 305 304 305 305 307 307 308 308 308 308 306 305 305 305 304 304 303 304 304 304 305 306 307 306 307 307 308 306 307 307
Wind_Speed
29 30 30 31 34 36 38 36 24 10 4 8 4 3 3 3 2 3 6 8 9 10 9 7 5 6 12 12 4 8 12 9 11 11 9 11 12 5 4 7 4 3 4 1 3 1 6
29 30 30 31 32 34 40 38 28 16 8 8 5 4 5 3 2 3 6 6 7 8 6 4 4 11 13 7 8 16 9 9 8 7 8 7 6 4 7 7 2 4 2 1 1 2 6
29 29 29 30 30 33 34 36 29 19 10 8 9 7 6 4 2 5 7 7 5 6 6 5 5 14 8 7 14 16 15 9 9 6 6 3 6 4 11 4 5 5 3 6 5 2 2
29 26 28 28 29 31 31 33 35 25 15 10 8 7 6 5 6 6 8 6 5 5 8 6 9 11 7 12 15 16 16 15 10 9 10 9 6 10 5 9 5 4 1 3 4 3 3
28 23 26 26 27 28 29 30 29 28 24 16 13 7 8 8 5 6 5 6 7 7 9 9 7 5 7 16 18 19 10 11 10 10 11 9 6 4 5 3 2 3 2 3 5 4 1
25 21 23 25 26 27 28 29 28 25 22 17 15 11 9 8 8 5 3 10 11 12 14 7 11 6 6 8 18 12 16 13 7 11 9 4 2 2 2 2 2 4 2 1 3 5 5
23 24 22 22 25 27 28 28 27 23 19 16 15 12 9 7 9 19 27 20 12 7 24 9 7 18 21 24 14 15 11 8 10 4 3 1 1 2 5 6 4 4 3 3 5 4 2
20 21 21 19 20 22 25 28 30 23 16 13 10 11 10 6 9 15 11 8 10 10 12 24 21 25 16 11 13 9 9 2 6 5 5 1 4 6 6 2 2 2 1 1 3 2 3
18 19 21 20 20 21 21 23 23 24 23 18 8 5 9 7 13 9 11 18 17 13 8 11 12 9 8 13 6 3 1 7 5 5 5 3 6 6 5 4 1 4 3 5 1 6 10
18 18 18 19 20 22 23 22 20 19 20 20 18 7 7 12 12 10 15 19 13 5 3 7 6 6 6 6 6 2 3 4 2 6 8 5 5 4 2 2 2 2 5 2 4 5 3
19 19 20 21 21 22 22 19 17 15 15 17 18 14 12 11 16 12 20 23 5 7 4 5 4 5 4 4 11 2 3 3 4 5 1 2 5 3 1 2 2 4 4 4 5 5 5
20 20 21 22 24 25 25 24 18 13 12 12 14 15 17 13 18 22 21 9 6 2 6 3 2 1 5 5 3 4 2 5 5 4 9 5 3 1 4 2 3 5 4 4 1 1 3
17 18 21 24 26 27 26 24 19 17 14 10 9 10 12 15 16 14 7 5 2 6 1 4 3 4 3 5 4 4 5 4 1 4 2 2 4 4 3 3 2 2 2 1 2 1 4
14 15 18 22 25 28 29 25 19 15 16 14 11 8 9 9 14 10 7 2 7 6 5 3 7 7 5 3 2 2 5 4 1 2 3 2 1 5 8 2 3 2 0 2 2 3 2
16 13 16 20 24 27 28 26 20 12 19 20 19 20 13 7 8 7 2 6 4 1 4 8 10 5 3 3 2 2 3 3 3 4 3 3 1 3 5 3 5 3 2 3 1 4 1
16 14 14 17 22 25 25 24 21 12 9 11 13 10 15 11 10 9 2 8 5 7 6 4 2 3 4 4 3 4 3 2 3 1 4 2 3 6 6 0 5 3 3 1 1 2 3
16 14 14 15 19 23 24 22 18 14 9 8 6 3 13 11 16 10 3 5 7 4 4 5 4 6 6 2 5 2 4 2 1 3 4 3 2 4 4 7 7 4 2 3 2 2 2
16 15 14 14 17 20 23 23 14 10 12 9 9 3 9 8 5 5 3 4 2 3 0 1 4 8 6 3 5 3 5 5 5 2 2 4 3 1 6 5 4 1 4 4 2 0 4
17 15 12 13 15 18 20 22 19 6 5 7 4 4 9 6 3 1 6 3 6 3 4 3 3 4 3 2 2 4 4 3 4 1 3 3 2 1 1 2 2 4 5 6 2 4 6
17 16 14 11 13 15 18 19 20 14 8 5 4 3 7 9 4 2 2 4 3 1 2 2 3 3 4 4 2 4 5 3 4 1 1 1 2 4 4 1 2 4 6 8 7 3 4
16 18 15 13 11 13 15 16 17 17 11 4 5 2 1 1 5 3 2 2 2 2 1 2 2 3 3 3 3 4 2 5 5 5 2 2 3 3 7 11 10 10 10 10 13 13 5
14 16 19 16 14 12 13 14 14 15 11 12 4 3 3 3 3 8 2 3 4 1 4 2 3 2 6 3 5 3 2 4 3 6 4 4 3 3 5 10 7 10 11 15 17 16 18
13 14 16 19 16 14 12 12 12 13 11 8 7 4 3 1 2 3 3 4 5 5 2 4 6 5 2 5 8 10 10 11 5 2 6 3 1 4 5 6 8 9 15 18 11 8 17
13 13 14 16 18 16 13 12 12 11 11 9 8 4 3 1 1 2 1 2 2 3 3 2 2 3 1 9 12 9 7 10 10 8 7 2 2 0 4 6 3 7 3 2 9 13 11
17 14 14 14 15 17 15 13 12 11 7 5 5 3 2 3 1 5 5 3 4 7 4 4 3 5 6 6 3 3 2 2 5 5 6 7 3 2 1 3 9 7 1 3 4 6 10
15 16 16 14 13 15 14 12 12 12 11 5 2 3 1 4 1 1 3 2 2 2 4 5 4 4 1 3 1 2 2 2 2 3 2 3 4 1 2 3 5 1 3 2 1 5 4
12 14 16 17 13 12 14 12 11 11 13 10 4 2 1 3 5 4 2 2 1 4 3 2 3 1 2 2 2 3 3 3 3 4 5 3 4 8 6 5 8 2 8 5 1 5 2
12 11 12 15 16 12 12 12 11 10 9 10 7 6 4 4 9 8 10 6 3 3 3 1 2 2 2 2 2 3 2 3 1 5 6 8 6 5 4 5 9 13 5 7 4 5 6
12 12 10 13 14 15 11 12 12 10 8 8 8 7 8 8 8 11 17 13 18 12 4 2 3 4 3 2 2 2 3 3 4 4 0 4 7 4 9 6 6 23 14 17 9 6 7
Wind_Direction
6 10 14 8 8 8 11 13 8 335 214 186 193 135 133 128 170 186 203 201 206 200 208 226 225 179 182 178 149 142 132 164 156 129 157 150 164 167 158 125 145 258 123 123 109 252 278
13 11 12 13 14 16 24 23 25 42 85 131 134 109 113 99 88 115 154 165 162 166 164 178 214 185 189 175 164 146 152 145 138 135 165 175 182 166 96 132 207 60 105 169 108 320 287
18 11 13 20 15 24 26 33 31 45 74 110 124 102 104 95 105 120 125 113 126 152 148 182 213 175 179 175 159 153 142 132 127 132 149 135 153 153 133 112 130 130 216 196 203 132 315
15 16 17 22 23 26 29 36 40 45 63 89 102 92 90 80 104 120 134 129 118 160 167 152 165 152 137 147 157 161 140 137 125 141 144 128 119 117 102 120 148 210 137 207 133 193 140
12 22 19 24 27 30 33 37 42 47 57 61 73 68 60 83 82 113 127 121 102 122 139 118 132 131 124 157 157 125 99 117 133 135 121 120 104 102 132 162 108 193 195 236 158 200 325
20 26 26 29 29 30 36 41 42 42 52 53 59 60 69 83 104 104 141 125 113 107 92 78 119 106 110 124 105 108 114 127 115 120 89 72 66 161 215 148 188 193 185 15 259 168 214
25 21 31 33 39 36 38 41 39 41 42 48 49 51 54 65 92 107 97 124 100 59 58 61 97 89 101 113 117 125 129 121 120 134 96 39 193 160 133 36 50 38 16 157 292 79 324
25 19 21 29 31 31 33 31 33 32 29 40 46 45 46 84 117 133 103 103 111 117 60 63 96 104 88 95 120 114 152 181 173 107 110 159 91 63 86 83 75 36 266 273 4 28 262
20 21 12 12 18 20 22 31 24 26 35 43 29 14 27 77 134 149 114 119 122 107 82 37 61 60 59 82 91 107 142 156 144 135 203 86 98 129 114 21 257 206 299 30 34 308 257
21 12 10 8 6 7 8 11 20 21 28 29 34 70 76 107 123 119 131 129 126 54 90 12 28 29 42 121 67 12 48 75 351 137 114 88 138 121 98 38 292 337 32 25 311 16 298
18 14 5 8 7 10 8 8 18 20 43 41 43 80 96 92 118 127 140 138 148 332 80 10 33 87 69 72 142 62 55 287 145 109 245 57 146 168 180 199 233 54 351 304 328 312 330
27 23 14 11 14 15 16 16 18 26 54 75 68 77 99 96 129 138 150 167 300 246 63 69 105 4 113 94 65 123 86 61 90 123 72 108 53 298 18 104 246 1 308 286 237 257 268
40 27 16 11 12 16 18 20 28 43 60 78 113 106 119 126 157 154 172 331 297 48 294 32 85 114 116 104 74 141 158 156 164 105 42 171 160 143 216 148 87 22 344 213 262 261 235
32 38 21 14 14 14 17 23 26 50 58 74 90 125 166 159 179 191 281 246 55 42 69 175 135 125 86 61 89 182 177 135 72 291 117 131 249 201 159 247 147 122 18 348 274 338 357
17 35 30 17 12 15 17 20 28 59 67 73 72 62 52 91 169 201 111 47 62 62 132 141 154 112 107 93 140 174 97 69 70 335 136 137 289 92 181 138 165 172 207 18 286 223 341
13 14 31 20 13 13 17 20 28 32 83 63 76 75 43 66 86 63 42 90 87 67 122 234 96 227 125 128 165 216 144 65 119 351 323 124 118 194 151 358 244 283 116 188 104 297 277
10 17 11 20 17 12 17 18 22 38 63 71 50 66 24 51 60 52 46 73 101 75 346 343 76 77 99 118 110 88 67 120 16 113 327 323 224 133 122 204 165 187 204 203 261 220 282
14 12 19 15 19 18 13 18 30 43 54 43 55 59 35 65 50 63 20 353 356 96 205 147 9 35 79 107 83 84 88 56 83 117 26 63 334 239 206 93 42 264 235 234 163 213 244
15 10 22 23 18 18 16 12 19 10 13 26 45 76 45 61 89 90 141 101 41 30 19 21 79 43 296 63 112 104 104 102 130 267 20 6 212 294 159 101 153 226 221 229 267 29 236
12 13 11 23 25 18 19 15 11 16 360 33 37 32 30 51 40 5 73 60 122 16 87 59 113 218 219 110 334 150 128 168 156 174 156 293 280 212 213 232 279 221 204 193 181 195 242
6 12 8 11 21 26 22 23 18 14 22 63 43 63 51 1 19 32 38 292 66 32 36 301 109 45 326 142 148 125 139 144 189 189 213 257 253 264 274 273 265 254 240 218 207 221 239
6 7 11 1 11 18 21 22 27 25 26 65 91 10 341 115 326 296 156 25 24 95 335 40 44 348 326 20 4 56 340 211 147 169 235 172 268 345 274 244 226 252 241 235 236 226 238
10 3 11 10 2 6 14 20 24 31 35 61 51 52 64 332 259 286 24 34 25 352 109 28 356 328 309 35 346 322 309 304 304 277 201 192 283 2 273 355 321 289 244 220 224 218 223
12 3 6 11 6 1 1 12 20 30 38 56 44 69 314 152 207 30 124 91 4 34 314 2 330 274 234 316 306 271 265 260 263 242 262 289 179 148 279 324 276 246 95 81 223 239 228
9 10 2 5 8 6 2 355 8 22 39 37 41 55 6 295 152 183 199 242 243 210 213 230 242 243 298 319 296 290 189 224 217 208 221 208 285 281 203 269 276 300 170 178 166 281 225
358 1 10 6 5 7 4 359 352 1 15 38 61 34 54 334 237 286 276 235 287 272 169 194 263 277 327 262 266 259 278 7 166 160 323 269 218 258 298 260 268 293 155 80 53 293 357
342 351 358 5 7 6 5 359 353 352 1 12 42 39 209 256 249 221 240 308 301 315 285 149 172 210 196 248 254 224 245 129 227 223 168 179 215 214 224 258 279 189 150 153 136 230 167
318 334 347 352 4 3 360 360 351 347 354 3 11 4 342 276 269 258 255 236 271 270 301 17 339 227 214 228 205 246 230 217 238 223 177 177 174 193 190 230 262 147 125 181 198 180 192
300 312 328 330 348 358 357 356 355 343 338 341 339 343 330 277 261 270 277 264 241 236 275 247 312 330 303 335 291 318 264 216 225 270 336 231 201 195 188 218 196 192 222 221 191 189 224